彩虹-1 2星 (RADUGA-1 2)

导读 | 星芒AI

RADUGA-1和RADUGA-2是俄罗斯开发的军用通信卫星,属于“彩虹”(Raduga)系列。这些卫星主要用于军事通信,提供加密、抗干扰的通信能力,支持俄罗斯武装部队的指挥与控制。RADUGA-1于1995年发射,RADUGA-2于2006年发射,后续还有多颗卫星加入该系统。该系列卫星通常部署在地球同步轨道,确保覆盖俄罗斯及其周边地区,提高战略通信的稳定性和安全性。

基本信息
目录编号:
21038
目录名称:
RADUGA 1-2
国际标识:
1990-116A
轨道中心:
EARTH
卫星名称:
彩虹-1 2星
卫星全名:
彩虹-1 2星 (RADUGA-1 2)
卫星状态:
在轨 (已飞行12710 天)
发射日期:
1990-12-27 UTC
国别 :
俄罗斯(独联体) (CIS)
星等 :
--
轨道信息
数据来源 国际轨道数据 AOE轨道数据
星历时间 2025-10-13T23:35:12+0800
22小时前
查看轨道信息
2025-10-11T00:00:00+0800
3天前
查看轨道信息
半长轴 42156.32km 42155.928km
偏心率 0.0005053 0.0004657
轨道倾角 13.101° 13.104°
近地点辐角 150.868° 148.963°
升交点赤经 339.661° 339.685°
平近点角 222.830° 227.652°
近地点 35756.883km 35758.16km
远地点 35799.487km 35797.426km
周期 1435.667分钟 1435.647分钟
每日圈数 1.003018 1.003032
详细信息
平衡模式:
三轴稳定
覆盖范围:
全球
运营商:
俄罗斯国家航天集团
运营商所在国:
俄罗斯
制造商(研发单位):
普里克拉德诺伊·梅哈尼基设计局
制造商所在国:
俄罗斯联邦
使用方式:
暂无
卫星简介
彩虹卫星(Raduga, Gran)是苏联用于军事和通信目的的一系列地球静止通信卫星。彩虹卫星旨在支持军事通信、Orbita地面电视网络,并在整个东半球(极地地区除外)提供电话和电报通信。该卫星已退役。
2D轨道图
3D轨道图
轨道高度分析图
轨道倾角分析图
轨道综合分析图
查看轨道综合分析图